| time (UTC) | temp F | wind direction | speed MPH | gust MPH | rain 1hr in | rain 24hr in | rain mn in | humidity % | barometer mb |
| 20260502224038 | 71 | 95 | 5.0 | 12.0 | 0.00 | 0.00 | 0.00 | 10 | 1016.7 |
| 20260502223542 | 71 | 142 | 4.0 | 11.0 | 0.00 | 0.00 | 0.00 | 11 | 1016.8 |
| 20260502223057 | 71 | 63 | 2.0 | 8.0 | 0.00 | 0.00 | 0.00 | 16 | 1016.8 |
| 20260502222538 | 71 | 25 | 3.0 | 8.0 | 0.00 | 0.00 | 0.00 | 10 | 1016.9 |
| 20260502222041 | 72 | 113 | 2.0 | 10.0 | 0.00 | 0.00 | 0.00 | 11 | 1017.0 |
| 20260502221549 | 72 | 213 | 4.0 | 10.0 | 0.00 | 0.00 | 0.00 | 11 | 1017.0 |
| 20260502221037 | 72 | 143 | 5.0 | 11.0 | 0.00 | 0.00 | 0.00 | 11 | 1017.1 |
| 20260502220538 | 72 | 189 | 4.0 | 11.0 | 0.00 | 0.00 | 0.00 | 13 | 1017.2 |
| 20260502220100 | 72 | 219 | 2.0 | 10.0 | 0.00 | 0.00 | 0.00 | 12 | 1017.3 |
| 20260502215539 | 70 | 110 | 3.0 | 10.0 | 0.00 | 0.00 | 0.00 | 16 | 1017.4 |
| 20260502215038 | 70 | 88 | 4.0 | 9.0 | 0.00 | 0.00 | 0.00 | 11 | 1017.5 |
| 20260502214551 | 71 | 94 | 3.0 | 8.0 | 0.00 | 0.00 | 0.00 | 13 | 1017.4 |
| 20260502214038 | 71 | 212 | 1.0 | 11.0 | 0.00 | 0.00 | 0.00 | 12 | 1017.6 |
| 20260502213538 | 72 | 113 | 3.0 | 11.0 | 0.00 | 0.00 | 0.00 | 10 | 1017.7 |
| 20260502213051 | 72 | 163 | 5.0 | 11.0 | 0.00 | 0.00 | 0.00 | 13 | 1017.9 |
| 20260502212540 | 72 | 162 | 3.0 | 11.0 | 0.00 | 0.00 | 0.00 | 14 | 1017.9 |
| 20260502212038 | 72 | 273 | 5.0 | 11.0 | 0.00 | 0.00 | 0.00 | 12 | 1017.9 |
| 20260502211547 | 71 | 196 | 5.0 | 9.0 | 0.00 | 0.00 | 0.00 | 15 | 1018.1 |
| 20260502211038 | 70 | 106 | 2.0 | 6.0 | 0.00 | 0.00 | 0.00 | 14 | 1018.2 |
| 20260502210537 | 70 | 110 | 1.0 | 5.0 | 0.00 | 0.00 | 0.00 | 15 | 1018.3 |
| 20260502210050 | 69 | 75 | 1.0 | 7.0 | 0.00 | 0.00 | 0.00 | 15 | 1018.4 |
| 20260502205538 | 69 | 81 | 2.0 | 9.0 | 0.00 | 0.00 | 0.00 | 14 | 1018.5 |
| 20260502205038 | 70 | 200 | 0.0 | 9.0 | 0.00 | 0.00 | 0.00 | 13 | 1018.7 |
| 20260502204549 | 69 | 170 | 4.0 | 9.0 | 0.00 | 0.00 | 0.00 | 13 | 1018.8 |
| 20260502204037 | 69 | 123 | 1.0 | 7.0 | 0.00 | 0.00 | 0.00 | 16 | 1018.8 |
| 20260502203539 | 69 | 114 | 3.0 | 7.0 | 0.00 | 0.00 | 0.00 | 15 | 1018.9 |
| 20260502203103 | 69 | 192 | 2.0 | 6.0 | 0.00 | 0.00 | 0.00 | 15 | 1018.9 |
| 20260502202537 | 68 | 0 | 1.0 | 5.0 | 0.00 | 0.00 | 0.00 | 16 | 1018.9 |
| 20260502202037 | 68 | 40 | 2.0 | 6.0 | 0.00 | 0.00 | 0.00 | 17 | 1019.0 |
| 20260502201603 | 68 | 27 | 2.0 | 6.0 | 0.00 | 0.00 | 0.00 | 14 | 1019.1 |
| 20260502201034 | 68 | 352 | 2.0 | 6.0 | 0.00 | 0.00 | 0.00 | 15 | 1019.1 |
| 20260502200534 | 69 | 125 | 1.0 | 8.0 | 0.00 | 0.00 | 0.00 | 15 | 1019.1 |
| 20260502200056 | 68 | 130 | 4.0 | 9.0 | 0.00 | 0.00 | 0.00 | 20 | 1019.2 |
| 20260502195534 | 69 | 106 | 3.0 | 9.0 | 0.00 | 0.00 | 0.00 | 19 | 1019.3 |
| 20260502195038 | 69 | 171 | 3.0 | 11.0 | 0.00 | 0.00 | 0.00 | 16 | 1019.3 |
| 20260502194554 | 69 | 146 | 3.0 | 11.0 | 0.00 | 0.00 | 0.00 | 21 | 1019.4 |
| 20260502194038 | 69 | 149 | 3.0 | 8.0 | 0.00 | 0.00 | 0.00 | 16 | 1019.4 |
| 20260502193538 | 68 | 0 | 2.0 | 8.0 | 0.00 | 0.00 | 0.00 | 19 | 1019.4 |
| 20260502193100 | 68 | 304 | 0.0 | 8.0 | 0.00 | 0.00 | 0.00 | 20 | 1019.4 |
| 20260502192537 | 67 | 337 | 1.0 | 8.0 | 0.00 | 0.00 | 0.00 | 17 | 1019.6 |
| 20260502192037 | 68 | 1 | 3.0 | 11.0 | 0.00 | 0.00 | 0.00 | 16 | 1019.6 |
| 20260502191553 | 68 | 308 | 4.0 | 11.0 | 0.00 | 0.00 | 0.00 | 16 | 1019.7 |
| 20260502191040 | 68 | 260 | 4.0 | 10.0 | 0.00 | 0.00 | 0.00 | 20 | 1019.7 |
| 20260502190538 | 68 | 233 | 3.0 | 7.0 | 0.00 | 0.00 | 0.00 | 20 | 1019.8 |
| 20260502190048 | 68 | 96 | 3.0 | 6.0 | 0.00 | 0.00 | 0.00 | 19 | 1019.9 |
| 20260502185537 | 68 | 4 | 1.0 | 6.0 | 0.00 | 0.00 | 0.00 | 22 | 1019.9 |
| 20260502185037 | 67 | 90 | 2.0 | 6.0 | 0.00 | 0.00 | 0.00 | 21 | 1020.0 |
| 20260502184556 | 67 | 109 | 3.0 | 6.0 | 0.00 | 0.00 | 0.00 | 18 | 1020.0 |
| 20260502184037 | 67 | 83 | 1.0 | 6.0 | 0.00 | 0.00 | 0.00 | 16 | 1020.1 |
| 20260502183538 | 66 | 206 | 2.0 | 8.0 | 0.00 | 0.00 | 0.00 | 16 | 1020.2 |
| 20260502183047 | 66 | 232 | 3.0 | 8.0 | 0.00 | 0.00 | 0.00 | 19 | 1020.3 |
| 20260502182539 | 66 | 261 | 2.0 | 8.0 | 0.00 | 0.00 | 0.00 | 16 | 1020.3 |
| 20260502182036 | 67 | 231 | 1.0 | 8.0 | 0.00 | 0.00 | 0.00 | 22 | 1020.4 |
| 20260502181546 | 65 | 209 | 2.0 | 6.0 | 0.00 | 0.00 | 0.00 | 18 | 1020.5 |
| 20260502181034 | 65 | 325 | 2.0 | 6.0 | 0.00 | 0.00 | 0.00 | 18 | 1020.5 |
| 20260502180537 | 65 | 32 | 1.0 | 8.0 | 0.00 | 0.00 | 0.00 | 19 | 1020.7 |
| 20260502164037 | 63 | 214 | 0.0 | 6.0 | 0.00 | 0.00 | 0.00 | 28 | 1021.5 |
| 20260502163537 | 61 | 106 | 2.0 | 5.0 | 0.00 | 0.00 | 0.00 | 27 | 1021.5 |
| 20260502163058 | 61 | 223 | 2.0 | 5.0 | 0.00 | 0.00 | 0.00 | 28 | 1021.6 |
| 20260502162537 | 61 | 174 | 2.0 | 5.0 | 0.00 | 0.00 | 0.00 | 28 | 1021.6 |
| 20260502162038 | 60 | 180 | 2.0 | 5.0 | 0.00 | 0.00 | 0.00 | 32 | 1021.6 |
| 20260502161549 | 60 | 92 | 1.0 | 5.0 | 0.00 | 0.00 | 0.00 | 30 | 1021.7 |
| 20260502161038 | 59 | 112 | 1.0 | 5.0 | 0.00 | 0.00 | 0.00 | 29 | 1021.8 |
| 20260502160537 | 59 | 96 | 1.0 | 6.0 | 0.00 | 0.00 | 0.00 | 33 | 1021.8 |
| 20260502152039 | 55 | 229 | 2.0 | 5.0 | 0.00 | 0.00 | 0.00 | 36 | 1022.0 |
| 20260502151611 | 54 | 197 | 2.0 | 5.0 | 0.00 | 0.00 | 0.00 | 37 | 1022.0 |
| 20260502151038 | 53 | 194 | 2.0 | 5.0 | 0.00 | 0.00 | 0.00 | 39 | 1022.1 |
| 20260502150538 | 53 | 216 | 1.0 | 4.0 | 0.00 | 0.00 | 0.00 | 39 | 1022.2 |
| 20260502130537 | 39 | 0 | 0.0 | 2.0 | 0.00 | 0.00 | 0.00 | 56 | 1022.3 |
| 20260502123537 | 34 | 0 | 0.0 | 1.0 | 0.00 | 0.00 | 0.00 | 66 | 1022.1 |
| 20260502123049 | 34 | 0 | 0.0 | 1.0 | 0.00 | 0.00 | 0.00 | 67 | 1021.9 |
| 20260502122534 | 33 | 0 | 0.0 | 1.0 | 0.00 | 0.00 | 0.00 | 67 | 1022.0 |
| 20260502122038 | 33 | 0 | 0.0 | 0.0 | 0.00 | 0.00 | 0.00 | 67 | 1021.8 |
| 20260502121553 | 33 | 0 | 0.0 | 0.0 | 0.00 | 0.00 | 0.00 | 67 | 1021.8 |
| 20260502121038 | 33 | 0 | 0.0 | 0.0 | 0.00 | 0.00 | 0.00 | 68 | 1021.8 |
| 20260502120538 | 33 | 0 | 0.0 | 0.0 | 0.00 | 0.00 | 0.00 | 70 | 1021.9 |
| 20260502115537 | 34 | 0 | 0.0 | 0.0 | 0.00 | 0.00 | 0.00 | 70 | 1021.9 |
| 20260502115037 | 34 | 0 | 0.0 | 0.0 | 0.00 | 0.00 | 0.00 | 68 | 1021.9 |
| 20260502114547 | 34 | 0 | 0.0 | 0.0 | 0.00 | 0.00 | 0.00 | 67 | 1022.0 |
| 20260502114037 | 34 | 0 | 0.0 | 1.0 | 0.00 | 0.00 | 0.00 | 68 | 1022.0 |
| 20260502113537 | 34 | 0 | 0.0 | 1.0 | 0.00 | 0.00 | 0.00 | 69 | 1021.9 |
| 20260502113050 | 34 | 0 | 0.0 | 1.0 | 0.00 | 0.00 | 0.00 | 71 | 1022.0 |
| 20260502112536 | 34 | 0 | 0.0 | 1.0 | 0.00 | 0.00 | 0.00 | 71 | 1022.0 |
| 20260502112037 | 34 | 0 | 0.0 | 1.0 | 0.00 | 0.00 | 0.00 | 69 | 1022.1 |
| 20260502111546 | 34 | 0 | 0.0 | 0.0 | 0.00 | 0.00 | 0.00 | 68 | 1022.1 |
| 20260502111038 | 34 | 0 | 0.0 | 0.0 | 0.00 | 0.00 | 0.00 | 65 | 1022.1 |
| 20260502110537 | 34 | 0 | 0.0 | 0.0 | 0.00 | 0.00 | 0.00 | 64 | 1022.1 |
| 20260502110048 | 35 | 0 | 0.0 | 0.0 | 0.00 | 0.00 | 0.00 | 64 | 1022.1 |
| 20260502105538 | 35 | 0 | 0.0 | 0.0 | 0.00 | 0.00 | 0.00 | 64 | 1022.1 |
| 20260502105038 | 35 | 0 | 0.0 | 0.0 | 0.00 | 0.00 | 0.00 | 63 | 1022.1 |
| 20260502104552 | 35 | 0 | 0.0 | 0.0 | 0.00 | 0.00 | 0.00 | 64 | 1022.0 |
| 20260502104037 | 35 | 0 | 0.0 | 0.0 | 0.00 | 0.00 | 0.00 | 65 | 1022.0 |
| 20260502103537 | 36 | 0 | 0.0 | 0.0 | 0.00 | 0.00 | 0.00 | 64 | 1021.9 |
| 20260502103047 | 36 | 0 | 0.0 | 0.0 | 0.00 | 0.00 | 0.00 | 63 | 1021.8 |
| 20260502102537 | 36 | 0 | 0.0 | 0.0 | 0.00 | 0.00 | 0.00 | 62 | 1021.8 |
| 20260502102038 | 36 | 0 | 0.0 | 0.0 | 0.00 | 0.00 | 0.00 | 63 | 1021.9 |
| 20260502101603 | 36 | 0 | 0.0 | 0.0 | 0.00 | 0.00 | 0.00 | 62 | 1021.9 |
| 20260502101036 | 37 | 0 | 0.0 | 0.0 | 0.00 | 0.00 | 0.00 | 62 | 1021.9 |
| 20260502100536 | 37 | 0 | 0.0 | 0.0 | 0.00 | 0.00 | 0.00 | 61 | 1021.8 |
| 20260502091041 | 39 | 0 | 0.0 | 1.0 | 0.00 | 0.00 | 0.00 | 52 | 1021.6 |
| 20260502090539 | 39 | 0 | 0.0 | 3.0 | 0.00 | 0.00 | 0.00 | 51 | 1021.6 |
| 20260502071037 | 41 | 0 | 0.0 | 0.0 | 0.00 | 0.00 | 0.00 | 57 | 1021.8 |
| 20260502070537 | 41 | 0 | 0.0 | 0.0 | 0.00 | 0.00 | 0.00 | 56 | 1021.7 |
| 20260502065537 | 41 | 0 | 0.0 | 2.0 | 0.00 | 0.00 | 0.00 | 54 | 1021.7 |
| 20260502065034 | 42 | 0 | 0.0 | 2.0 | 0.00 | 0.00 | 0.00 | 54 | 1021.6 |
| 20260502064552 | 42 | 0 | 0.0 | 2.0 | 0.00 | 0.00 | 0.00 | 53 | 1021.6 |
| 20260502064036 | 43 | 0 | 0.0 | 2.0 | 0.00 | 0.00 | 0.00 | 51 | 1021.7 |
| 20260502063533 | 43 | 352 | 0.0 | 2.0 | 0.00 | 0.00 | 0.00 | 49 | 1021.6 |
| 20260502063047 | 44 | 0 | 0.0 | 2.0 | 0.00 | 0.00 | 0.00 | 47 | 1021.6 |
| 20260502062536 | 44 | 0 | 0.0 | 3.0 | 0.00 | 0.00 | 0.00 | 47 | 1021.7 |
| 20260502062038 | 44 | 347 | 0.0 | 4.0 | 0.00 | 0.00 | 0.00 | 45 | 1021.6 |
| 20260502061548 | 44 | 352 | 1.0 | 4.0 | 0.00 | 0.00 | 0.00 | 44 | 1021.6 |
| 20260502061037 | 45 | 356 | 1.0 | 5.0 | 0.00 | 0.00 | 0.00 | 45 | 1021.5 |
| 20260502060537 | 45 | 356 | 2.0 | 5.0 | 0.00 | 0.00 | 0.00 | 46 | 1021.6 |
| 20260502060049 | 45 | 356 | 2.0 | 4.0 | 0.00 | 0.00 | 0.00 | 47 | 1021.6 |
| 20260502055539 | 45 | 356 | 1.0 | 3.0 | 0.00 | 0.00 | 0.00 | 47 | 1021.6 |
| 20260502055037 | 45 | 356 | 1.0 | 3.0 | 0.00 | 0.00 | 0.00 | 48 | 1021.6 |
| 20260502054559 | 45 | 352 | 1.0 | 3.0 | 0.00 | 0.00 | 0.00 | 48 | 1021.6 |
| 20260502054037 | 45 | 356 | 1.0 | 3.0 | 0.00 | 0.00 | 0.00 | 48 | 1021.5 |
| 20260502053537 | 45 | 0 | 1.0 | 3.0 | 0.00 | 0.00 | 0.00 | 49 | 1021.6 |
| 20260502053045 | 46 | 347 | 0.0 | 3.0 | 0.00 | 0.00 | 0.00 | 48 | 1021.6 |
| 20260502052536 | 46 | 352 | 1.0 | 3.0 | 0.00 | 0.00 | 0.00 | 48 | 1021.6 |
| 20260502052039 | 46 | 352 | 1.0 | 3.0 | 0.00 | 0.00 | 0.00 | 46 | 1021.4 |
| 20260502051549 | 46 | 0 | 1.0 | 3.0 | 0.00 | 0.00 | 0.00 | 44 | 1021.4 |
| 20260502051038 | 46 | 0 | 0.0 | 3.0 | 0.00 | 0.00 | 0.00 | 41 | 1021.4 |
| 20260502050537 | 46 | 6 | 0.0 | 3.0 | 0.00 | 0.00 | 0.00 | 41 | 1021.4 |
| 20260502050049 | 47 | 0 | 0.0 | 2.0 | 0.00 | 0.00 | 0.00 | 40 | 1021.5 |
| 20260502045537 | 47 | 5 | 0.0 | 2.0 | 0.00 | 0.00 | 0.00 | 40 | 1021.4 |
| 20260502045037 | 47 | 0 | 0.0 | 2.0 | 0.00 | 0.00 | 0.00 | 40 | 1021.4 |
| 20260502044547 | 47 | 0 | 0.0 | 3.0 | 0.00 | 0.00 | 0.00 | 41 | 1021.4 |
| 20260502044034 | 47 | 0 | 1.0 | 3.0 | 0.00 | 0.00 | 0.00 | 41 | 1021.3 |
| 20260502043536 | 47 | 6 | 0.0 | 3.0 | 0.00 | 0.00 | 0.00 | 40 | 1021.4 |
| 20260502043109 | 47 | 0 | 0.0 | 2.0 | 0.00 | 0.00 | 0.00 | 35 | 1021.4 |
| 20260502042533 | 48 | 6 | 0.0 | 2.0 | 0.00 | 0.00 | 0.00 | 35 | 1021.3 |
| 20260502042036 | 48 | 6 | 1.0 | 4.0 | 0.00 | 0.00 | 0.00 | 36 | 1021.2 |
| 20260502041612 | 48 | 6 | 1.0 | 4.0 | 0.00 | 0.00 | 0.00 | 36 | 1021.1 |
| 20260502041036 | 49 | 6 | 1.0 | 3.0 | 0.00 | 0.00 | 0.00 | 39 | 1021.3 |
| 20260502040538 | 50 | 0 | 0.0 | 3.0 | 0.00 | 0.00 | 0.00 | 39 | 1021.1 |
| 20260502040056 | 50 | 356 | 1.0 | 3.0 | 0.00 | 0.00 | 0.00 | 33 | 1021.0 |
| 20260502035538 | 51 | 356 | 1.0 | 4.0 | 0.00 | 0.00 | 0.00 | 31 | 1020.9 |
| 20260502035040 | 51 | 356 | 2.0 | 4.0 | 0.00 | 0.00 | 0.00 | 30 | 1020.9 |
| 20260502034550 | 52 | 357 | 1.0 | 8.0 | 0.00 | 0.00 | 0.00 | 32 | 1020.8 |
| 20260502034037 | 52 | 358 | 3.0 | 8.0 | 0.00 | 0.00 | 0.00 | 32 | 1020.8 |
| 20260502033536 | 52 | 357 | 2.0 | 7.0 | 0.00 | 0.00 | 0.00 | 30 | 1020.7 |
| 20260502033043 | 52 | 358 | 4.0 | 7.0 | 0.00 | 0.00 | 0.00 | 34 | 1020.6 |
| 20260502032537 | 52 | 358 | 3.0 | 5.0 | 0.00 | 0.00 | 0.00 | 32 | 1020.6 |
| 20260502032033 | 52 | 357 | 2.0 | 7.0 | 0.00 | 0.00 | 0.00 | 38 | 1020.4 |
| 20260502031552 | 52 | 358 | 3.0 | 7.0 | 0.00 | 0.00 | 0.00 | 33 | 1020.3 |
| 20260502031035 | 53 | 358 | 3.0 | 7.0 | 0.00 | 0.00 | 0.00 | 30 | 1020.3 |
| 20260502030536 | 53 | 358 | 4.0 | 8.0 | 0.00 | 0.00 | 0.00 | 30 | 1020.3 |
| 20260502030109 | 53 | 356 | 4.0 | 8.0 | 0.00 | 0.00 | 0.00 | 29 | 1020.3 |
| 20260502025536 | 53 | 358 | 4.0 | 8.0 | 0.00 | 0.00 | 0.00 | 30 | 1020.2 |
| 20260502025037 | 53 | 358 | 3.0 | 7.0 | 0.00 | 0.00 | 0.00 | 28 | 1020.1 |
| 20260502024557 | 53 | 356 | 3.0 | 8.0 | 0.00 | 0.00 | 0.00 | 29 | 1020.0 |
| 20260502024037 | 54 | 357 | 3.0 | 8.0 | 0.00 | 0.00 | 0.00 | 29 | 1019.9 |
| 20260502023537 | 54 | 358 | 3.0 | 7.0 | 0.00 | 0.00 | 0.00 | 42 | 1019.9 |
| 20260502023112 | 55 | 356 | 1.0 | 3.0 | 0.00 | 0.00 | 0.00 | 28 | 1019.8 |
| 20260502022538 | 55 | 0 | 1.0 | 3.0 | 0.00 | 0.00 | 0.00 | 28 | 1019.6 |
| 20260502022034 | 56 | 356 | 1.0 | 5.0 | 0.00 | 0.00 | 0.00 | 27 | 1019.6 |
| 20260502021546 | 56 | 356 | 1.0 | 6.0 | 0.00 | 0.00 | 0.00 | 25 | 1019.6 |
| 20260502021035 | 56 | 41 | 2.0 | 6.0 | 0.00 | 0.00 | 0.00 | 24 | 1019.4 |
| 20260502020533 | 56 | 40 | 3.0 | 6.0 | 0.00 | 0.00 | 0.00 | 25 | 1019.3 |
| 20260502020046 | 57 | 27 | 3.0 | 8.0 | 0.00 | 0.00 | 0.00 | 25 | 1019.3 |
| 20260502015536 | 57 | 35 | 4.0 | 9.0 | 0.00 | 0.00 | 0.00 | 25 | 1019.3 |
| 20260502015036 | 57 | 35 | 4.0 | 9.0 | 0.00 | 0.00 | 0.00 | 24 | 1019.2 |
| 20260502014553 | 57 | 27 | 3.0 | 8.0 | 0.00 | 0.00 | 0.00 | 24 | 1019.1 |
| 20260502014036 | 58 | 36 | 3.0 | 7.0 | 0.00 | 0.00 | 0.00 | 26 | 1018.9 |
| 20260502013536 | 58 | 17 | 4.0 | 8.0 | 0.00 | 0.00 | 0.00 | 26 | 1019.0 |
| 20260502013055 | 58 | 37 | 4.0 | 10.0 | 0.00 | 0.00 | 0.00 | 25 | 1018.9 |
| 20260502012538 | 58 | 20 | 6.0 | 11.0 | 0.00 | 0.00 | 0.00 | 24 | 1018.8 |
| 20260502012037 | 58 | 21 | 5.0 | 13.0 | 0.00 | 0.00 | 0.00 | 24 | 1018.7 |
| 20260502011603 | 59 | 24 | 8.0 | 13.0 | 0.00 | 0.00 | 0.00 | 24 | 1018.7 |
| 20260502011037 | 59 | 8 | 6.0 | 12.0 | 0.00 | 0.00 | 0.00 | 23 | 1018.5 |
| 20260502010536 | 59 | 40 | 8.0 | 12.0 | 0.00 | 0.00 | 0.00 | 22 | 1018.5 |
| 20260502010045 | 60 | 69 | 5.0 | 14.0 | 0.00 | 0.00 | 0.00 | 23 | 1018.4 |
| 20260502005537 | 60 | 38 | 8.0 | 16.0 | 0.00 | 0.00 | 0.00 | 23 | 1018.4 |
| 20260502005036 | 60 | 15 | 9.0 | 18.0 | 0.00 | 0.00 | 0.00 | 22 | 1018.4 |
| 20260502004546 | 61 | 69 | 9.0 | 18.0 | 0.00 | 0.00 | 0.00 | 22 | 1018.3 |
| 20260502004035 | 61 | 72 | 8.0 | 14.0 | 0.00 | 0.00 | 0.00 | 23 | 1018.3 |
| 20260502003538 | 61 | 16 | 4.0 | 14.0 | 0.00 | 0.00 | 0.00 | 21 | 1018.4 |
| 20260502003049 | 61 | 33 | 5.0 | 14.0 | 0.00 | 0.00 | 0.00 | 23 | 1018.4 |
| 20260502002537 | 61 | 356 | 4.0 | 17.0 | 0.00 | 0.00 | 0.00 | 22 | 1018.5 |
| 20260502002038 | 61 | 3 | 9.0 | 17.0 | 0.00 | 0.00 | 0.00 | 23 | 1018.4 |
| 20260502001557 | 61 | 36 | 8.0 | 16.0 | 0.00 | 0.00 | 0.00 | 22 | 1018.4 |
| 20260502001040 | 61 | 42 | 8.0 | 16.0 | 0.00 | 0.00 | 0.00 | 22 | 1018.4 |
| 20260502000533 | 61 | 27 | 6.0 | 14.0 | 0.00 | 0.00 | 0.00 | 22 | 1018.4 |
| 20260502000058 | 61 | 39 | 2.0 | 13.0 | 0.00 | 0.00 | 0.00 | 22 | 1018.3 |
| 20260501235536 | 61 | 63 | 5.0 | 15.0 | 0.00 | 0.00 | 0.00 | 22 | 1018.4 |
| 20260501235036 | 61 | 356 | 7.0 | 15.0 | 0.00 | 0.00 | 0.00 | 22 | 1018.3 |
| 20260501234549 | 62 | 347 | 3.0 | 11.0 | 0.00 | 0.00 | 0.00 | 22 | 1018.2 |
| 20260501234036 | 62 | 356 | 4.0 | 13.0 | 0.00 | 0.00 | 0.00 | 20 | 1018.2 |
| 20260501233536 | 62 | 28 | 6.0 | 13.0 | 0.00 | 0.00 | 0.00 | 20 | 1018.2 |
| 20260501233101 | 62 | 34 | 3.0 | 11.0 | 0.00 | 0.00 | 0.00 | 20 | 1018.2 |
| 20260501232535 | 62 | 303 | 3.0 | 11.0 | 0.00 | 0.00 | 0.00 | 20 | 1018.2 |
| 20260501232038 | 62 | 14 | 4.0 | 13.0 | 0.00 | 0.00 | 0.00 | 21 | 1018.1 |
| 20260501231620 | 62 | 21 | 4.0 | 13.0 | 0.00 | 0.00 | 0.00 | 19 | 1018.1 |
| 20260501231038 | 63 | 52 | 4.0 | 13.0 | 0.00 | 0.00 | 0.00 | 23 | 1018.1 |
| 20260501230539 | 63 | 318 | 4.0 | 13.0 | 0.00 | 0.00 | 0.00 | 20 | 1018.1 |
| 20260501230117 | 63 | 30 | 4.0 | 11.0 | 0.00 | 0.00 | 0.00 | 21 | 1018.1 |
| 20260501225539 | 62 | 3 | 1.0 | 10.0 | 0.00 | 0.00 | 0.00 | 22 | 1018.0 |
| 20260501225038 | 62 | 18 | 3.0 | 10.0 | 0.00 | 0.00 | 0.00 | 20 | 1018.1 |
| 20260501224557 | 62 | 307 | 1.0 | 9.0 | 0.00 | 0.00 | 0.00 | 22 | 1018.1 |